IZ3ZOD-13 Weather Reports


Display with metric or nautical units.
time (UTC)temp
F
wind
direction
speed
MPH
gust
MPH
rain 1hr
in
rain 24hr
in
rain mn
in
humidity
%
barometer
mb
20260831134803 92 211 4.0 10.0 0.00 0.00 0.00 45 1013.6
20260831134613 92 212 4.0 7.0 0.00 0.00 0.00 43 1013.6
20260831134003 91 212 4.0 8.0 0.00 0.00 0.00 45 1013.6
20260831133603 92 214 4.0 8.0 0.00 0.00 0.00 46 1013.6
20260831133203 92 212 3.0 7.0 0.00 0.00 0.00 45 1013.7
20260831133015 92 216 3.0 4.0 0.00 0.00 0.00 45 1013.7
20260831132403 92 222 3.0 6.0 0.00 0.00 0.00 44 1013.7
20260831132003 92 213 4.0 8.0 0.00 0.00 0.00 46 1013.8
20260831131603 92 205 3.0 8.0 0.00 0.00 0.00 47 1013.7
20260831131203 92 199 3.0 8.0 0.00 0.00 0.00 45 1013.8
20260831131017 92 201 3.0 6.0 0.00 0.00 0.00 45 1013.9
20260831130403 92 194 4.0 8.0 0.00 0.00 0.00 46 1013.8
20260831130004 91 196 5.0 8.0 0.00 0.00 0.00 43 1014.1
20260831125603 92 189 4.0 8.0 0.00 0.00 0.00 43 1013.9
20260831125414 92 195 4.0 7.0 0.00 0.00 0.00 44 1014.0
20260831124803 92 192 4.0 8.0 0.00 0.00 0.00 43 1014.1
20260831124403 92 203 3.0 8.0 0.00 0.00 0.00 44 1014.0
20260831124003 91 215 3.0 8.0 0.00 0.00 0.00 46 1014.2
20260831123603 91 214 4.0 8.0 0.00 0.00 0.00 43 1014.2
20260831123416 91 211 4.0 8.0 0.00 0.00 0.00 44 1014.2
20260831122803 91 215 3.0 8.0 0.00 0.00 0.00 44 1014.2
20260831122615 91 224 3.0 7.0 0.00 0.00 0.00 43 1014.2
20260831122003 91 219 4.0 7.0 0.00 0.00 0.00 44 1014.4
20260831121814 90 205 4.0 11.0 0.00 0.00 0.00 45 1014.3
20260831121413 91 193 4.0 11.0 0.00 0.00 0.00 46 1014.2
20260831120803 91 201 4.0 8.0 0.00 0.00 0.00 45 1014.2
20260831120403 91 193 3.0 8.0 0.00 0.00 0.00 44 1014.4
20260831120216 91 204 3.0 8.0 0.00 0.00 0.00 45 1014.3
20260831115603 90 224 3.0 6.0 0.00 0.00 0.00 44 1014.3
20260831115203 91 231 3.0 6.0 0.00 0.00 0.00 46 1014.4
20260831114803 90 239 4.0 9.0 0.00 0.00 0.00 46 1014.5
20260831114403 90 242 4.0 9.0 0.00 0.00 0.00 44 1014.5
20260831114003 90 218 3.0 6.0 0.00 0.00 0.00 46 1014.5
20260831113603 90 211 3.0 9.0 0.00 0.00 0.00 46 1014.6
20260831113203 90 214 4.0 9.0 0.00 0.00 0.00 44 1014.6
20260831113016 90 220 4.0 9.0 0.00 0.00 0.00 47 1014.5
20260831112616 90 225 3.0 8.0 0.00 0.00 0.00 44 1014.6
20260831112003 90 216 3.0 8.0 0.00 0.00 0.00 50 1014.6
20260831111603 90 220 3.0 6.0 0.00 0.00 0.00 44 1014.7
20260831111203 90 218 3.0 6.0 0.00 0.00 0.00 48 1014.8
20260831110803 90 225 3.0 6.0 0.00 0.00 0.00 45 1014.7
20260831110403 90 210 4.0 8.0 0.00 0.00 0.00 46 1014.7
20260831110003 89 206 3.0 8.0 0.00 0.00 0.00 46 1014.7
20260831105603 89 204 3.0 8.0 0.00 0.00 0.00 49 1014.8
20260831105416 89 207 3.0 7.0 0.00 0.00 0.00 47 1014.9
20260831105015 89 228 3.0 6.0 0.00 0.00 0.00 47 1014.9
20260831104403 90 218 3.0 5.0 0.00 0.00 0.00 46 1014.8
20260831104003 89 190 3.0 8.0 0.00 0.00 0.00 48 1014.7
20260831103603 89 188 4.0 8.0 0.00 0.00 0.00 47 1014.9
20260831103203 89 206 3.0 8.0 0.00 0.00 0.00 47 1014.7
20260831102803 89 222 3.0 7.0 0.00 0.00 0.00 51 1014.9
20260831102403 89 228 2.0 5.0 0.00 0.00 0.00 49 1014.9
20260831102216 88 230 2.0 5.0 0.00 0.00 0.00 49 1015.0
20260831101603 89 232 2.0 7.0 0.00 0.00 0.00 47 1014.9
20260831101203 89 236 2.0 7.0 0.00 0.00 0.00 47 1015.0
20260831101014 89 227 2.0 3.0 0.00 0.00 0.00 47 1015.0
20260831100403 89 211 3.0 6.0 0.00 0.00 0.00 50 1015.1
20260831095603 88 231 2.0 4.0 0.00 0.00 0.00 51 1015.1
20260831095203 89 233 1.0 4.0 0.00 0.00 0.00 50 1015.1
20260831094803 89 235 1.0 4.0 0.00 0.00 0.00 51 1014.9
20260831094403 88 214 1.0 4.0 0.00 0.00 0.00 52 1015.1
20260831094214 88 208 2.0 4.0 0.00 0.00 0.00 51 1015.2
20260831093814 88 193 2.0 4.0 0.00 0.00 0.00 51 1015.1
20260831093203 87 214 2.0 4.0 0.00 0.00 0.00 54 1015.1
20260831092803 86 233 2.0 4.0 0.00 0.00 0.00 54 1015.3
20260831092403 87 191 2.0 3.0 0.00 0.00 0.00 53 1015.3
20260831092216 87 174 2.0 4.0 0.00 0.00 0.00 52 1015.3
20260831091603 87 160 2.0 4.0 0.00 0.00 0.00 53 1015.3
20260831091203 87 196 2.0 3.0 0.00 0.00 0.00 53 1015.2
20260831090803 87 231 1.0 3.0 0.00 0.00 0.00 52 1015.3
20260831090613 87 238 1.0 3.0 0.00 0.00 0.00 54 1015.3
20260831090003 87 225 1.0 3.0 0.00 0.00 0.00 53 1015.2
20260831085603 87 213 1.0 3.0 0.00 0.00 0.00 53 1015.2
20260831085203 87 219 1.0 3.0 0.00 0.00 0.00 53 1015.3
20260831085016 87 219 1.0 3.0 0.00 0.00 0.00 51 1015.2
20260831084615 86 236 1.0 3.0 0.00 0.00 0.00 54 1015.2
20260831084214 86 239 1.0 3.0 0.00 0.00 0.00 54 1015.2
20260831083603 86 254 1.0 2.0 0.00 0.00 0.00 52 1015.1
20260831083203 86 282 0.0 1.0 0.00 0.00 0.00 53 1015.5
20260831083012 86 286 0.0 1.0 0.00 0.00 0.00 52 1015.4
20260831082617 86 272 1.0 2.0 0.00 0.00 0.00 53 1015.4
20260831082003 85 268 1.0 2.0 0.00 0.00 0.00 54 1015.2
20260831081816 85 264 1.0 2.0 0.00 0.00 0.00 54 1015.2
20260831081203 84 258 1.0 2.0 0.00 0.00 0.00 55 1015.2
20260831080803 84 262 1.0 2.0 0.00 0.00 0.00 58 1015.0
20260831080403 83 271 0.0 1.0 0.00 0.00 0.00 58 1015.0
20260831080004 83 318 1.0 2.0 0.00 0.00 0.00 58 1015.0
20260831075603 83 356 1.0 2.0 0.00 0.00 0.00 60 1015.2
20260831075203 82 11 1.0 2.0 0.00 0.00 0.00 59 1015.1
20260831074803 82 15 1.0 2.0 0.00 0.00 0.00 60 1015.0
20260831074403 82 24 1.0 2.0 0.00 0.00 0.00 60 1014.9
20260831074003 81 23 1.0 2.0 0.00 0.00 0.00 61 1014.9
20260831073603 81 12 1.0 2.0 0.00 0.00 0.00 62 1014.8
20260831073203 80 9 2.0 3.0 0.00 0.00 0.00 64 1014.8
20260831072803 80 8 1.0 3.0 0.00 0.00 0.00 65 1014.7
20260831072403 80 6 1.0 3.0 0.00 0.00 0.00 64 1014.7
20260831072003 80 9 1.0 2.0 0.00 0.00 0.00 65 1014.8
20260831071603 79 16 1.0 2.0 0.00 0.00 0.00 67 1014.7
20260831071203 79 17 1.0 3.0 0.00 0.00 0.00 67 1014.8
20260831070803 78 16 1.0 3.0 0.00 0.00 0.00 68 1014.8
20260831070403 78 8 1.0 3.0 0.00 0.00 0.00 68 1014.9
20260831070003 78 1 1.0 2.0 0.00 0.00 0.00 68 1014.6
20260831065603 78 8 1.0 2.0 0.00 0.00 0.00 68 1014.5
20260831065413 78 13 1.0 2.0 0.00 0.00 0.00 69 1014.6
20260831064803 77 7 1.0 2.0 0.00 0.00 0.00 71 1014.7
20260831064403 78 353 0.0 2.0 0.00 0.00 0.00 69 1014.6
20260831064003 77 287 0.0 1.0 0.00 0.00 0.00 71 1014.5
20260831063603 77 286 0.0 1.0 0.00 0.00 0.00 71 1014.5
20260831063203 76 0 0.0 0.0 0.00 0.00 0.00 72 1014.4
20260831062803 76 0 0.0 0.0 0.00 0.00 0.00 72 1014.6
20260831062403 76 0 0.0 0.0 0.00 0.00 0.00 73 1014.5
20260831062212 76 0 0.0 0.0 0.00 0.00 0.00 73 1014.7
20260831061817 75 278 0.0 0.0 0.00 0.00 0.00 72 1014.5
20260831061203 75 278 0.0 1.0 0.00 0.00 0.00 73 1014.7
20260831060803 74 278 0.0 1.0 0.00 0.00 0.00 74 1014.4
20260831060615 74 278 0.0 1.0 0.00 0.00 0.00 74 1014.6
20260831060003 74 282 0.0 2.0 0.00 0.00 0.00 75 1014.6
20260831055814 74 284 0.0 2.0 0.00 0.00 0.00 76 1014.4
20260831055413 73 326 0.0 0.0 0.00 0.00 0.00 77 1014.6
20260831054803 72 334 0.0 2.0 0.00 0.00 0.00 80 1014.4
20260831054403 71 342 0.0 2.0 0.00 0.00 0.00 80 1014.4
20260831054003 71 21 0.0 2.0 0.00 0.00 0.00 81 1014.5
20260831053603 70 0 0.0 0.0 0.00 0.00 0.00 83 1014.2
20260831053203 70 0 0.0 0.0 0.00 0.00 0.00 83 1014.3
20260831052803 69 0 0.0 0.0 0.00 0.00 0.00 84 1014.3
20260831052403 68 0 0.0 0.0 0.00 0.00 0.00 86 1014.2
20260831052003 68 0 0.0 0.0 0.00 0.00 0.00 87 1014.1
20260831051603 67 0 0.0 0.0 0.00 0.00 0.00 88 1014.1
20260831051203 67 0 0.0 0.0 0.00 0.00 0.00 89 1014.0
20260831050803 67 0 0.0 0.0 0.00 0.00 0.00 89 1014.1
20260831050403 66 0 0.0 0.0 0.00 0.00 0.00 90 1014.1
20260831050003 66 0 0.0 0.0 0.00 0.00 0.00 91 1014.1
20260831045603 66 0 0.0 0.0 0.00 0.00 0.00 91 1013.9
20260831045414 66 0 0.0 0.0 0.00 0.00 0.00 91 1014.0
20260831044803 66 0 0.0 0.0 0.00 0.00 0.00 91 1014.1
20260831044403 66 0 0.0 0.0 0.00 0.00 0.00 91 1014.0
20260831044003 66 0 0.0 0.0 0.00 0.00 0.00 91 1014.2
20260831043603 66 0 0.0 0.0 0.00 0.00 0.00 91 1014.0
20260831043203 66 0 0.0 0.0 0.00 0.00 0.00 91 1014.0
20260831043015 66 0 0.0 0.0 0.00 0.00 0.00 91 1013.9
20260831042403 66 0 0.0 0.0 0.00 0.00 0.00 91 1013.9
20260831042003 66 0 0.0 0.0 0.00 0.00 0.00 91 1014.1
20260831041418 66 0 0.0 0.0 0.00 0.00 0.00 92 1013.9
20260831040803 66 0 0.0 0.0 0.00 0.00 0.00 91 1013.9
20260831040403 66 0 0.0 0.0 0.00 0.00 0.00 90 1014.0
20260831040216 66 0 0.0 0.0 0.00 0.00 0.00 90 1013.9
20260831035603 67 0 0.0 0.0 0.00 0.00 0.00 90 1013.7
20260831035203 66 0 0.0 0.0 0.00 0.00 0.00 90 1013.7
20260831034803 66 0 0.0 0.0 0.00 0.00 0.00 91 1014.0
20260831034403 66 0 0.0 0.0 0.00 0.00 0.00 91 1013.7
20260831034003 66 0 0.0 0.0 0.00 0.00 0.00 91 1013.9
20260831033603 66 0 0.0 0.0 0.00 0.00 0.00 91 1014.2
20260831033203 66 0 0.0 0.0 0.00 0.00 0.00 90 1014.0
20260831032803 67 0 0.0 0.0 0.00 0.00 0.00 89 1014.1
20260831032403 67 0 0.0 0.0 0.00 0.00 0.00 90 1014.2
20260831032003 67 0 0.0 0.0 0.00 0.00 0.00 90 1014.2
20260831031603 67 0 0.0 0.0 0.00 0.00 0.00 90 1014.3
20260831031203 67 0 0.0 0.0 0.00 0.00 0.00 90 1014.3
20260831030803 66 0 0.0 0.0 0.00 0.00 0.00 91 1014.3
20260831030403 66 0 0.0 0.0 0.00 0.00 0.00 90 1014.4
20260831030003 67 0 0.0 0.0 0.00 0.00 0.00 90 1014.3
20260831025603 67 0 0.0 0.0 0.00 0.00 0.00 90 1014.2
20260831025203 67 0 0.0 0.0 0.00 0.00 0.00 90 1014.4
20260831024803 67 0 0.0 0.0 0.00 0.00 0.00 90 1014.4
20260831024614 67 0 0.0 0.0 0.00 0.00 0.00 90 1014.3
20260831024003 67 0 0.0 0.0 0.00 0.00 0.00 88 1014.3
20260831023603 67 0 0.0 0.0 0.00 0.00 0.00 88 1014.3
20260831023203 67 0 0.0 0.0 0.00 0.00 0.00 89 1014.4
20260831022803 67 0 0.0 0.0 0.00 0.00 0.00 90 1014.4
20260831022403 67 0 0.0 0.0 0.00 0.00 0.00 90 1014.3
20260831022003 67 0 0.0 0.0 0.00 0.00 0.00 90 1014.2
20260831021603 67 0 0.0 0.0 0.00 0.00 0.00 90 1014.2
20260831021203 67 0 0.0 0.0 0.00 0.00 0.00 90 1014.4
20260831020803 67 0 0.0 0.0 0.00 0.00 0.00 89 1014.4
20260831020403 67 0 0.0 0.0 0.00 0.00 0.00 89 1014.2
20260831020217 67 0 0.0 0.0 0.00 0.00 0.00 89 1014.3
20260831015603 67 0 0.0 0.0 0.00 0.00 0.00 89 1014.4
20260831015203 67 0 0.0 0.0 0.00 0.00 0.00 89 1014.5
20260831014803 67 0 0.0 0.0 0.00 0.00 0.00 89 1014.3
20260831014403 67 0 0.0 0.0 0.00 0.00 0.00 89 1014.4
20260831014003 67 0 0.0 0.0 0.00 0.00 0.00 89 1014.2
20260831013813 67 0 0.0 0.0 0.00 0.00 0.00 89 1014.4
20260831013418 68 0 0.0 0.0 0.00 0.00 0.00 88 1014.4
20260831012803 68 0 0.0 0.0 0.00 0.00 0.00 88 1014.5
20260831012616 69 0 0.0 0.0 0.00 0.00 0.00 87 1014.3
20260831012003 69 0 0.0 0.0 0.00 0.00 0.00 87 1014.4
20260831011603 68 0 0.0 0.0 0.00 0.00 0.00 88 1014.4
20260831011203 68 0 0.0 0.0 0.00 0.00 0.00 88 1014.4
20260831010803 68 0 0.0 0.0 0.00 0.00 0.00 88 1014.3
20260831010403 68 0 0.0 0.0 0.00 0.00 0.00 88 1014.4
20260831010212 68 0 0.0 0.0 0.00 0.00 0.00 88 1014.4
20260831005603 68 0 0.0 0.0 0.00 0.00 0.00 87 1014.5
20260831005203 68 0 0.0 0.0 0.00 0.00 0.00 88 1014.5
20260831004803 68 0 0.0 0.0 0.00 0.00 0.00 88 1014.4
20260831004403 68 0 0.0 0.0 0.00 0.00 0.00 88 1014.5
20260831004003 69 0 0.0 0.0 0.00 0.00 0.00 87 1014.5
20260831003814 69 0 0.0 0.0 0.00 0.00 0.00 87 1014.6
20260831003203 69 0 0.0 0.0 0.00 0.00 0.00 86 1014.5
20260831003012 69 0 0.0 0.0 0.00 0.00 0.00 86 1014.5
20260831002403 69 0 0.0 0.0 0.00 0.00 0.00 86 1014.7
20260831002003 69 0 0.0 0.0 0.00 0.00 0.00 86 1014.6
20260831001603 70 0 0.0 0.0 0.00 0.00 0.00 85 1014.7
20260831001203 70 0 0.0 0.0 0.00 0.00 0.00 85 1014.6
20260831000803 69 0 0.0 0.0 0.00 0.00 0.00 85 1014.6
20260831000403 69 0 0.0 0.0 0.00 0.00 0.00 86 1014.7
20260831000003 69 0 0.0 0.0 0.00 0.00 0.00 86 1014.6
20260830235603 70 0 0.0 0.0 0.00 0.00 0.00 85 1014.6
20260830235203 70 0 0.0 0.0 0.00 0.00 0.00 84 1014.6
20260830234803 69 0 0.0 0.0 0.00 0.00 0.00 84 1014.8
20260830234616 69 0 0.0 0.0 0.00 0.00 0.00 85 1014.8
20260830234003 69 0 0.0 0.0 0.00 0.00 0.00 86 1014.6
20260830233603 69 0 0.0 0.0 0.00 0.00 0.00 85 1014.8
20260830233203 70 0 0.0 0.0 0.00 0.00 0.00 85 1014.7
20260830233013 70 0 0.0 0.0 0.00 0.00 0.00 85 1014.7
20260830232403 70 0 0.0 0.0 0.00 0.00 0.00 84 1014.8
20260830232003 71 0 0.0 0.0 0.00 0.00 0.00 83 1014.8
20260830231603 71 0 0.0 0.0 0.00 0.00 0.00 82 1014.7
20260830231203 71 0 0.0 0.0 0.00 0.00 0.00 83 1014.9
20260830230803 71 0 0.0 0.0 0.00 0.00 0.00 83 1014.7
20260830230403 71 0 0.0 0.0 0.00 0.00 0.00 84 1014.8
20260830230004 71 97 0.0 1.0 0.00 0.00 0.00 83 1014.7
20260830225603 70 97 0.0 1.0 0.00 0.00 0.00 84 1014.7
20260830225412 70 97 0.0 1.0 0.00 0.00 0.00 85 1014.6
20260830225017 70 0 0.0 0.0 0.00 0.00 0.00 86 1014.6
20260830224403 70 0 0.0 0.0 0.00 0.00 0.00 86 1014.9
20260830224003 70 0 0.0 0.0 0.00 0.00 0.00 86 1014.9
20260830223603 70 0 0.0 0.0 0.00 0.00 0.00 86 1014.9
20260830223203 71 0 0.0 0.0 0.00 0.00 0.00 85 1014.9
20260830223014 71 0 0.0 0.0 0.00 0.00 0.00 85 1014.8
20260830222403 71 0 0.0 0.0 0.00 0.00 0.00 85 1014.8
20260830222213 71 0 0.0 0.0 0.00 0.00 0.00 85 1014.9
20260830221603 71 0 0.0 0.0 0.00 0.00 0.00 84 1014.8
20260830221203 71 0 0.0 0.0 0.00 0.00 0.00 84 1014.6
20260830220803 71 0 0.0 0.0 0.00 0.00 0.00 83 1014.7
20260830220403 71 0 0.0 0.0 0.00 0.00 0.00 84 1014.8
20260830220215 71 0 0.0 0.0 0.00 0.00 0.00 84 1014.7
20260830215603 71 97 0.0 0.0 0.00 0.00 0.00 84 1014.8
20260830215203 71 97 0.0 1.0 0.00 0.00 0.00 84 1014.7
20260830214803 71 97 1.0 1.0 0.00 0.00 0.00 84 1014.7
20260830214403 72 97 1.0 1.0 0.00 0.00 0.00 83 1014.6
20260830214003 72 96 0.0 1.0 0.00 0.00 0.00 83 1014.6
20260830213603 71 0 0.0 0.0 0.00 0.00 0.00 84 1014.6
20260830213203 71 0 0.0 0.0 0.00 0.00 0.00 84 1014.7
20260830212803 72 0 0.0 0.0 0.00 0.00 0.00 83 1014.8
20260830212403 72 0 0.0 0.0 0.00 0.00 0.00 83 1014.6
20260830212003 71 0 0.0 0.0 0.00 0.00 0.00 83 1014.7
20260830211603 71 0 0.0 0.0 0.00 0.00 0.00 84 1014.7
20260830211203 71 0 0.0 0.0 0.00 0.00 0.00 85 1014.6
20260830210803 71 0 0.0 0.0 0.00 0.00 0.00 85 1014.5
20260830210403 71 0 0.0 0.0 0.00 0.00 0.00 85 1014.6
20260830210003 72 0 0.0 0.0 0.00 0.00 0.00 85 1014.5
20260830205603 72 0 0.0 0.0 0.00 0.00 0.00 84 1014.3
20260830205414 72 0 0.0 0.0 0.00 0.00 0.00 84 1014.4
20260830204803 72 0 0.0 0.0 0.00 0.00 0.00 83 1014.5
20260830204612 72 0 0.0 0.0 0.00 0.00 0.00 83 1014.4
20260830204003 72 0 0.0 0.0 0.00 0.00 0.00 84 1014.6
20260830203603 72 0 0.0 0.0 0.00 0.00 0.00 83 1014.5
20260830203203 72 0 0.0 0.0 0.00 0.00 0.00 82 1014.3
20260830202803 73 0 0.0 0.0 0.00 0.00 0.00 81 1014.4
20260830202403 73 0 0.0 0.0 0.00 0.00 0.00 80 1014.4
20260830202003 73 0 0.0 0.0 0.00 0.00 0.00 80 1014.5
20260830201813 73 0 0.0 0.0 0.00 0.00 0.00 80 1014.3
20260830201412 73 96 0.0 1.0 0.00 0.00 0.00 81 1014.4
20260830200803 73 96 0.0 1.0 0.00 0.00 0.00 80 1014.3
20260830200616 73 96 1.0 1.0 0.00 0.00 0.00 80 1014.3
20260830200216 73 96 1.0 2.0 0.00 0.00 0.00 82 1014.4
20260830195815 73 96 1.0 2.0 0.00 0.00 0.00 82 1014.3
20260830195203 73 96 0.0 2.0 0.00 0.00 0.00 82 1014.2
20260830194803 73 0 0.0 0.0 0.00 0.00 0.00 82 1014.3
20260830194613 73 0 0.0 0.0 0.00 0.00 0.00 84 1014.3
20260830194003 73 0 0.0 0.0 0.00 0.00 0.00 83 1014.3
20260830193603 73 0 0.0 0.0 0.00 0.00 0.00 81 1014.4
20260830193203 73 0 0.0 0.0 0.00 0.00 0.00 82 1014.5
20260830192803 73 0 0.0 0.0 0.00 0.00 0.00 81 1014.5
20260830192403 73 0 0.0 0.0 0.00 0.00 0.00 81 1014.2
20260830192214 73 0 0.0 0.0 0.00 0.00 0.00 80 1014.3
20260830191603 74 0 0.0 0.0 0.00 0.00 0.00 79 1014.1
20260830191413 74 0 0.0 0.0 0.00 0.00 0.00 79 1014.2
20260830190803 74 0 0.0 0.0 0.00 0.00 0.00 79 1014.2
20260830190403 74 0 0.0 0.0 0.00 0.00 0.00 79 1013.9
20260830190003 75 0 0.0 0.0 0.00 0.00 0.00 79 1014.3
20260830185603 75 0 0.0 0.0 0.00 0.00 0.00 78 1014.3
20260830185415 75 0 0.0 0.0 0.00 0.00 0.00 78 1014.1
20260830185014 75 0 0.0 0.0 0.00 0.00 0.00 77 1014.2
20260830184403 76 0 0.0 0.0 0.00 0.00 0.00 75 1014.1
20260830184003 76 0 0.0 0.0 0.00 0.00 0.00 75 1014.2
20260830183603 76 0 0.0 0.0 0.00 0.00 0.00 76 1014.1
20260830183203 76 0 0.0 0.0 0.00 0.00 0.00 76 1014.0
20260830182803 76 0 0.0 0.0 0.00 0.00 0.00 72 1014.1
20260830182403 77 0 0.0 0.0 0.00 0.00 0.00 72 1013.8
20260830182003 77 0 0.0 0.0 0.00 0.00 0.00 74 1013.9
20260830181603 77 0 0.0 0.0 0.00 0.00 0.00 72 1013.9
20260830181203 78 0 0.0 0.0 0.00 0.00 0.00 71 1013.8
20260830180803 78 0 0.0 0.0 0.00 0.00 0.00 72 1014.0
20260830180612 79 0 0.0 0.0 0.00 0.00 0.00 70 1013.5
20260830180003 80 0 0.0 0.0 0.00 0.00 0.00 68 1013.6
20260830175603 80 0 0.0 0.0 0.00 0.00 0.00 67 1013.5
20260830175203 81 0 0.0 0.0 0.00 0.00 0.00 62 1013.7
20260830174803 81 0 0.0 0.0 0.00 0.00 0.00 62 1013.7
20260830174403 82 0 0.0 0.0 0.00 0.00 0.00 62 1013.4
20260830174003 82 0 0.0 0.0 0.00 0.00 0.00 62 1013.5
20260830173813 82 0 0.0 0.0 0.00 0.00 0.00 63 1013.5
20260830173203 84 0 0.0 0.0 0.00 0.00 0.00 62 1013.4
20260830172803 84 0 0.0 0.0 0.00 0.00 0.00 59 1013.4
20260830172616 84 0 0.0 0.0 0.00 0.00 0.00 57 1013.5
20260830172003 85 96 0.0 1.0 0.00 0.00 0.00 57 1013.6
20260830171603 85 96 0.0 1.0 0.00 0.00 0.00 56 1013.6
20260830171414 85 96 0.0 1.0 0.00 0.00 0.00 56 1013.6
20260830170803 86 96 0.0 1.0 0.00 0.00 0.00 53 1013.6
20260830170403 86 97 0.0 1.0 0.00 0.00 0.00 54 1013.6
20260830170003 86 96 1.0 1.0 0.00 0.00 0.00 54 1013.5
20260830165603 86 96 1.0 2.0 0.00 0.00 0.00 53 1013.7
20260830165203 87 96 1.0 2.0 0.00 0.00 0.00 51 1013.6
20260830164803 87 96 0.0 2.0 0.00 0.00 0.00 50 1013.8
20260830164403 87 96 0.0 2.0 0.00 0.00 0.00 50 1013.8
20260830164003 87 103 1.0 3.0 0.00 0.00 0.00 50 1013.8
20260830163603 87 105 1.0 3.0 0.00 0.00 0.00 50 1013.7
20260830163203 88 103 1.0 3.0 0.00 0.00 0.00 49 1013.8
20260830162803 88 105 1.0 3.0 0.00 0.00 0.00 48 1013.9
20260830162403 88 99 1.0 3.0 0.00 0.00 0.00 47 1013.8
20260830162003 88 86 1.0 3.0 0.00 0.00 0.00 49 1013.8
20260830161603 88 78 2.0 4.0 0.00 0.00 0.00 48 1014.0
20260830161203 88 78 1.0 4.0 0.00 0.00 0.00 48 1013.8
20260830160803 88 86 2.0 3.0 0.00 0.00 0.00 48 1013.8
20260830160403 88 77 2.0 4.0 0.00 0.00 0.00 48 1014.1
20260830160003 88 73 2.0 4.0 0.00 0.00 0.00 48 1014.0
20260830155812 88 72 2.0 4.0 0.00 0.00 0.00 49 1013.9
20260830155203 88 75 2.0 4.0 0.00 0.00 0.00 45 1014.1
20260830155016 88 73 3.0 4.0 0.00 0.00 0.00 47 1013.9
20260830154403 88 93 3.0 4.0 0.00 0.00 0.00 48 1014.2
20260830154003 89 111 2.0 6.0 0.00 0.00 0.00 48 1013.9
20260830153603 89 110 2.0 6.0 0.00 0.00 0.00 47 1014.1
20260830153203 89 86 2.0 4.0 0.00 0.00 0.00 48 1014.1
20260830152803 89 106 3.0 4.0 0.00 0.00 0.00 47 1014.1
20260830152403 89 136 2.0 4.0 0.00 0.00 0.00 47 1014.1
20260830152217 89 145 2.0 4.0 0.00 0.00 0.00 47 1014.0
20260830151816 89 122 2.0 5.0 0.00 0.00 0.00 47 1014.0
20260830151416 88 114 3.0 6.0 0.00 0.00 0.00 48 1013.9
20260830150803 89 97 3.0 6.0 0.00 0.00 0.00 47 1014.0
20260830150614 89 88 3.0 8.0 0.00 0.00 0.00 45 1014.2
20260830150003 89 74 3.0 8.0 0.00 0.00 0.00 47 1014.0
20260830145603 89 68 3.0 6.0 0.00 0.00 0.00 46 1014.2
20260830145203 90 76 3.0 6.0 0.00 0.00 0.00 44 1014.1
20260830144803 90 90 2.0 4.0 0.00 0.00 0.00 44 1014.0
20260830144616 90 94 2.0 5.0 0.00 0.00 0.00 45 1014.2
20260830144003 89 84 3.0 7.0 0.00 0.00 0.00 45 1014.1
20260830143603 90 83 3.0 7.0 0.00 0.00 0.00 45 1014.2
20260830143203 91 90 2.0 6.0 0.00 0.00 0.00 44 1014.2
20260830142803 90 98 2.0 4.0 0.00 0.00 0.00 45 1014.1
20260830142403 90 74 3.0 7.0 0.00 0.00 0.00 45 1014.1
20260830142003 90 75 3.0 7.0 0.00 0.00 0.00 45 1014.2
20260830141817 90 75 3.0 7.0 0.00 0.00 0.00 45 1014.4
20260830141203 90 101 2.0 6.0 0.00 0.00 0.00 43 1014.3
20260830140803 90 92 3.0 4.0 0.00 0.00 0.00 44 1014.2
20260830140615 90 79 3.0 6.0 0.00 0.00 0.00 45 1014.2
20260830140003 90 71 2.0 6.0 0.00 0.00 0.00 44 1014.4
20260830135814 90 73 2.0 6.0 0.00 0.00 0.00 42 1014.4
20260830135203 90 100 3.0 7.0 0.00 0.00 0.00 43 1014.5